| time (UTC) | temp C | wind direction | speed KPH | gust KPH | rain 1hr cm | rain 24hr cm | rain mn cm | humidity % | barometer mb |
| 20260508013041 | 0 | 111 | 0.0 | 3.2 | 0.00 | 0.00 | 0.00 | 83 | 1020.7 |
| 20260508011541 | -1 | 116 | 0.0 | 0.0 | 0.00 | 0.00 | 0.00 | 81 | 1020.4 |
| 20260508010141 | 0 | 116 | 0.0 | 0.0 | 0.00 | 0.00 | 0.00 | 79 | 1020.4 |
| 20260508004548 | 0 | 116 | 0.0 | 0.0 | 0.00 | 0.00 | 0.00 | 79 | 1020.3 |
| 20260508003048 | 0 | 117 | 1.6 | 8.0 | 0.00 | 0.00 | 0.00 | 82 | 1020.2 |
| 20260508001545 | 0 | 59 | 0.0 | 0.0 | 0.00 | 0.00 | 0.00 | 81 | 1020.0 |
| 20260508000139 | 0 | 58 | 0.0 | 0.0 | 0.00 | 0.00 | 0.00 | 81 | 1019.9 |
| 20260507234550 | 0 | 58 | 0.0 | 0.0 | 0.00 | 0.00 | 0.00 | 80 | 1019.9 |
| 20260507233139 | 0 | 58 | 0.0 | 0.0 | 0.00 | 0.00 | 0.00 | 77 | 1019.7 |
| 20260507231546 | 1 | 58 | 0.0 | 0.0 | 0.00 | 0.00 | 0.00 | 75 | 1019.6 |
| 20260507230046 | 1 | 58 | 0.0 | 0.0 | 0.00 | 0.00 | 0.00 | 72 | 1019.3 |
| 20260507224544 | 1 | 58 | 0.0 | 0.0 | 0.00 | 0.00 | 0.00 | 70 | 1019.2 |
| 20260507223139 | 1 | 58 | 0.0 | 0.0 | 0.00 | 0.00 | 0.00 | 69 | 1019.2 |
| 20260507221542 | 2 | 58 | 0.0 | 0.0 | 0.00 | 0.00 | 0.00 | 66 | 1019.2 |
| 20260507220043 | 2 | 58 | 0.0 | 1.6 | 0.00 | 0.00 | 0.00 | 63 | 1019.0 |
| 20260507214544 | 3 | 76 | 0.0 | 3.2 | 0.00 | 0.00 | 0.00 | 62 | 1018.8 |
| 20260507213141 | 3 | 26 | 0.0 | 1.6 | 0.00 | 0.00 | 0.00 | 62 | 1018.8 |
| 20260507211547 | 4 | 26 | 0.0 | 0.0 | 0.00 | 0.00 | 0.00 | 61 | 1018.6 |
| 20260507204547 | 5 | 26 | 0.0 | 0.0 | 0.00 | 0.00 | 0.00 | 58 | 1018.3 |
| 20260507203039 | 6 | 26 | 0.0 | 0.0 | 0.00 | 0.00 | 0.00 | 55 | 1018.1 |
| 20260507201544 | 6 | 26 | 0.0 | 0.0 | 0.00 | 0.00 | 0.00 | 54 | 1017.9 |
| 20260507200051 | 7 | 25 | 0.0 | 0.0 | 0.00 | 0.00 | 0.00 | 51 | 1017.8 |
| 20260507194550 | 7 | 25 | 0.0 | 0.0 | 0.00 | 0.00 | 0.00 | 48 | 1017.7 |
| 20260507193042 | 9 | 25 | 0.0 | 1.6 | 0.00 | 0.00 | 0.00 | 43 | 1017.5 |
| 20260507191547 | 10 | 24 | 1.6 | 3.2 | 0.00 | 0.00 | 0.00 | 40 | 1017.2 |
| 20260507190140 | 11 | 313 | 0.0 | 3.2 | 0.00 | 0.00 | 0.00 | 38 | 1017.1 |
| 20260507184546 | 11 | 313 | 0.0 | 3.2 | 0.00 | 0.00 | 0.00 | 37 | 1017.0 |
| 20260507183102 | 11 | 301 | 1.6 | 4.8 | 0.00 | 0.00 | 0.00 | 38 | 1016.8 |
| 20260507181545 | 12 | 305 | 4.8 | 8.0 | 0.00 | 0.00 | 0.00 | 35 | 1016.8 |
| 20260507180140 | 12 | 318 | 3.2 | 4.8 | 0.00 | 0.00 | 0.00 | 35 | 1016.8 |
| 20260507174550 | 13 | 298 | 3.2 | 4.8 | 0.00 | 0.00 | 0.00 | 32 | 1016.7 |
| 20260507173046 | 12 | 306 | 4.8 | 8.0 | 0.00 | 0.00 | 0.00 | 29 | 1016.5 |
| 20260507171543 | 13 | 288 | 4.8 | 9.7 | 0.00 | 0.00 | 0.00 | 28 | 1016.5 |
| 20260507170043 | 13 | 277 | 8.0 | 11.3 | 0.00 | 0.00 | 0.00 | 25 | 1016.3 |
| 20260507164558 | 13 | 5 | 4.8 | 11.3 | 0.00 | 0.00 | 0.00 | 24 | 1016.3 |
| 20260507163040 | 14 | 336 | 8.0 | 12.9 | 0.00 | 0.00 | 0.00 | 27 | 1016.2 |
| 20260507161553 | 13 | 316 | 4.8 | 12.9 | 0.00 | 0.00 | 0.00 | 28 | 1016.2 |
| 20260507160040 | 14 | 346 | 1.6 | 14.5 | 0.00 | 0.00 | 0.00 | 28 | 1016.1 |
| 20260507154543 | 14 | 322 | 6.4 | 14.5 | 0.00 | 0.00 | 0.00 | 28 | 1016.1 |
| 20260507153043 | 14 | 344 | 8.0 | 12.9 | 0.00 | 0.00 | 0.00 | 30 | 1016.1 |
| 20260507151540 | 13 | 302 | 6.4 | 12.9 | 0.00 | 0.00 | 0.00 | 30 | 1016.0 |
| 20260507150139 | 13 | 301 | 8.0 | 14.5 | 0.00 | 0.00 | 0.00 | 29 | 1016.0 |
| 20260507144540 | 13 | 309 | 8.0 | 19.3 | 0.00 | 0.00 | 0.00 | 29 | 1016.0 |
| 20260507143046 | 13 | 306 | 6.4 | 16.1 | 0.00 | 0.00 | 0.00 | 27 | 1016.1 |
| 20260507140043 | 13 | 277 | 9.7 | 17.7 | 0.00 | 0.00 | 0.00 | 27 | 1015.9 |
| 20260507134545 | 13 | 304 | 8.0 | 22.5 | 0.00 | 0.00 | 0.00 | 29 | 1015.8 |
| 20260507133046 | 12 | 360 | 11.3 | 19.3 | 0.00 | 0.00 | 0.00 | 30 | 1015.8 |
| 20260507131543 | 13 | 309 | 12.9 | 20.9 | 0.00 | 0.00 | 0.00 | 28 | 1015.7 |
| 20260507130142 | 13 | 344 | 12.9 | 19.3 | 0.00 | 0.00 | 0.00 | 29 | 1015.7 |
| 20260507124546 | 13 | 300 | 8.0 | 20.9 | 0.00 | 0.00 | 0.00 | 31 | 1015.6 |
| 20260507123043 | 13 | 292 | 12.9 | 22.5 | 0.00 | 0.00 | 0.00 | 31 | 1015.5 |
| 20260507121543 | 13 | 322 | 6.4 | 24.1 | 0.00 | 0.00 | 0.00 | 33 | 1015.3 |
| 20260507120040 | 13 | 300 | 8.0 | 19.3 | 0.00 | 0.00 | 0.00 | 33 | 1015.3 |
| 20260507114556 | 12 | 338 | 8.0 | 24.1 | 0.00 | 0.00 | 0.00 | 38 | 1015.3 |
| 20260507113101 | 12 | 292 | 11.3 | 19.3 | 0.00 | 0.00 | 0.00 | 38 | 1015.2 |
| 20260507111546 | 12 | 332 | 8.0 | 22.5 | 0.00 | 0.00 | 0.00 | 43 | 1015.2 |
| 20260507110043 | 12 | 304 | 8.0 | 20.9 | 0.00 | 0.00 | 0.00 | 47 | 1015.2 |
| 20260507104545 | 12 | 295 | 11.3 | 19.3 | 0.00 | 0.00 | 0.00 | 47 | 1015.1 |
| 20260507103048 | 12 | 323 | 8.0 | 20.9 | 0.00 | 0.00 | 0.00 | 46 | 1015.0 |
| 20260507101542 | 11 | 282 | 12.9 | 22.5 | 0.00 | 0.00 | 0.00 | 45 | 1014.9 |
| 20260507100039 | 11 | 264 | 14.5 | 22.5 | 0.00 | 0.00 | 0.00 | 45 | 1014.7 |
| 20260507094541 | 11 | 306 | 9.7 | 20.9 | 0.00 | 0.00 | 0.00 | 43 | 1014.6 |
| 20260507093038 | 11 | 330 | 9.7 | 20.9 | 0.00 | 0.00 | 0.00 | 45 | 1014.5 |
| 20260507091543 | 11 | 311 | 8.0 | 19.3 | 0.00 | 0.00 | 0.00 | 43 | 1014.5 |
| 20260507090140 | 11 | 285 | 12.9 | 19.3 | 0.00 | 0.00 | 0.00 | 49 | 1014.4 |
| 20260507084546 | 11 | 296 | 9.7 | 19.3 | 0.00 | 0.00 | 0.00 | 56 | 1014.4 |
| 20260507083041 | 11 | 320 | 8.0 | 16.1 | 0.00 | 0.00 | 0.00 | 51 | 1014.3 |
| 20260507081544 | 11 | 303 | 3.2 | 17.7 | 0.00 | 0.00 | 0.00 | 53 | 1014.1 |
| 20260507080138 | 11 | 327 | 4.8 | 12.9 | 0.00 | 0.00 | 0.00 | 54 | 1014.0 |
| 20260507073138 | 9 | 275 | 9.7 | 12.9 | 0.00 | 0.00 | 0.00 | 63 | 1013.9 |
| 20260507071541 | 8 | 297 | 3.2 | 6.4 | 0.00 | 0.00 | 0.00 | 66 | 1013.9 |
| 20260507070137 | 8 | 312 | 4.8 | 9.7 | 0.00 | 0.00 | 0.00 | 67 | 1013.8 |
| 20260507064548 | 7 | 313 | 3.2 | 9.7 | 0.00 | 0.00 | 0.00 | 72 | 1013.7 |
| 20260507063043 | 7 | 279 | 3.2 | 8.0 | 0.00 | 0.00 | 0.00 | 75 | 1013.7 |
| 20260507061543 | 6 | 290 | 3.2 | 8.0 | 0.00 | 0.00 | 0.00 | 77 | 1013.5 |
| 20260507060138 | 5 | 316 | 3.2 | 8.0 | 0.00 | 0.00 | 0.00 | 78 | 1013.4 |
| 20260507054539 | 5 | 280 | 4.8 | 8.0 | 0.00 | 0.00 | 0.00 | 79 | 1013.3 |
| 20260507053138 | 5 | 236 | 6.4 | 9.7 | 0.00 | 0.00 | 0.00 | 80 | 1013.3 |
| 20260507051544 | 4 | 248 | 4.8 | 8.0 | 0.00 | 0.00 | 0.00 | 80 | 1013.1 |
| 20260507050042 | 3 | 210 | 3.2 | 6.4 | 0.00 | 0.00 | 0.00 | 81 | 1013.1 |
| 20260507044548 | 3 | 202 | 3.2 | 6.4 | 0.00 | 0.00 | 0.00 | 82 | 1013.0 |
| 20260507043055 | 2 | 179 | 3.2 | 8.0 | 0.00 | 0.00 | 0.00 | 82 | 1012.9 |
| 20260507041543 | 2 | 164 | 1.6 | 4.8 | 0.00 | 0.00 | 0.00 | 81 | 1012.8 |
| 20260507040042 | 2 | 138 | 1.6 | 4.8 | 0.00 | 0.00 | 0.00 | 82 | 1012.7 |
| 20260507034541 | 2 | 138 | 3.2 | 6.4 | 0.00 | 0.00 | 0.00 | 81 | 1012.5 |
| 20260507033039 | 2 | 129 | 3.2 | 6.4 | 0.00 | 0.00 | 0.00 | 81 | 1012.4 |
| 20260507031546 | 2 | 108 | 0.0 | 4.8 | 0.00 | 0.00 | 0.00 | 82 | 1012.3 |
| 20260507030039 | 2 | 96 | 3.2 | 4.8 | 0.00 | 0.00 | 0.00 | 83 | 1012.2 |
| 20260507024547 | 2 | 82 | 1.6 | 3.2 | 0.00 | 0.00 | 0.00 | 82 | 1012.1 |
| 20260507023038 | 2 | 226 | 0.0 | 6.4 | 0.00 | 0.00 | 0.00 | 79 | 1012.1 |
| 20260507021540 | 3 | 103 | 0.0 | 3.2 | 0.00 | 0.00 | 0.00 | 78 | 1012.0 |
| 20260507020049 | 3 | 100 | 1.6 | 3.2 | 0.00 | 0.00 | 0.00 | 77 | 1011.9 |
| 20260507014544 | 3 | 90 | 1.6 | 3.2 | 0.00 | 0.00 | 0.00 | 75 | 1011.7 |